Home > Weather > Wright > Past weeks

Flag for USA Past Weather in Wright, Florida, USA — Yesterday and Last 2 Weeks

Now
83 °F

Passing clouds.


Feels Like: 89 °F
Forecast: 79 / 89 °F
Wind: 5 mph from Northeast

Location: Hurlburt Field

Current Time: Jul 25, 2016 at 7:06:35 AM

Latest Report: Jul 25, 2016 at 5:58 AM


Visibility: 10 mi

Pressure: 29.98 "Hg

Humidity: 68%

Dew Point: 72 °F

Location of WrightLocation

Past Weather in Wright — Graph

°F

Wright Temperature Yesterday

Maximum temperature yesterday: 91 °F (at 2:58 PM)
Minimum temperature yesterday: 75 °F (at 5:58 AM)
Average temperature yesterday: 83 °F

High & Low Weather Summary for the Past Weeks

 TemperatureHumidityPressure
High95 °F (Jul 20, 11:58 AM)100% (Jul 11, 6:50 AM)30.23 "Hg (Jul 11, 6:50 AM)
Low72 °F (Jul 14, 5:58 AM)44% (Jul 20, 11:58 AM)29.93 "Hg (Jul 25, 2:58 AM)
Average82 °F76%30.08 "Hg
* Reported Jul 10 5:58 AM — Jul 25 5:58 AM, Wright, Weather by CustomWeather, © 2016

Note: Actual official high and low records may vary slightly from our data, if they occured in-between our weather recording intervals... More about our weather records

Advertising

Wright Weather History for the Previous 24 Hours

Scroll right to see more
 ConditionsComfort  
Time TempWeatherWind HumidityBarometerVisibility
5:58 AM
Mon, Jul 25
83 °FPassing clouds.5 mph68%29.98 "Hg10 mi
4:59 AM84 °FPassing clouds.5 mph70%29.96 "Hg10 mi
4:03 AM84 °FPartly cloudy.7 mph66%29.95 "Hg10 mi
3:58 AM84 °FPassing clouds.7 mph70%29.94 "Hg10 mi
2:58 AM84 °FPassing clouds.7 mph70%29.93 "Hg10 mi
1:58 AM83 °FClear.7 mph70%29.95 "Hg10 mi
12:58 AM84 °FPassing clouds.6 mph68%29.97 "Hg10 mi
10:58 PM
Sun, Jul 24
85 °FPassing clouds.6 mph68%29.99 "Hg10 mi
9:58 PM85 °FPassing clouds.6 mph68%29.99 "Hg10 mi
8:58 PM85 °FPassing clouds.6 mph70%29.98 "Hg10 mi
7:58 PM85 °FPassing clouds.6 mph67%29.97 "Hg10 mi
6:58 PM86 °FBroken clouds.5 mph69%29.96 "Hg10 mi
5:58 PM86 °FSunny.5 mph64%29.96 "Hg10 mi
4:58 PM86 °FSunny.7 mph69%29.95 "Hg10 mi
3:58 PM87 °FPassing clouds.6 mph62%29.96 "Hg10 mi
2:58 PM91 °FScattered clouds.15 mph54%29.96 "Hg10 mi
1:58 PM91 °FSunny.12 mph58%29.98 "Hg10 mi
12:58 PM88 °FPassing clouds.6 mph66%29.99 "Hg10 mi
11:58 AM90 °FScattered clouds.10 mph58%30.01 "Hg10 mi
10:58 AM88 °FPassing clouds.8 mph60%30.01 "Hg10 mi
9:58 AM87 °FScattered clouds.10 mph69%30.01 "Hg10 mi
8:58 AM85 °FSunny.7 mph74%30.01 "Hg10 mi
7:58 AM81 °FSunny.5 mph84%30.00 "Hg10 mi
Weather by CustomWeather, © 2016

See weather overviewHow to use our weather pages